When you browse on this site, cookies collect data to enhance your experience and personalize the content and advertising you see.
Visit our Privacy Policy to learn more. By continuing to use the site, you agree to this use of cookies and data.
  • In Hungary
  • List of Countries
  • For 7 days
  • Water Temperature
  • Weather Map
  • News
  • Weather Widgets
  • user-avatar
    Login

    Hourly Weather Sulmona

    Today, 13 November, Wednesday

    Time Temperature Precipitation Wind Pressure Humidity
    00:00 +12°C° 0.3 mm 2 mps 709 mmHg 88%
    01:00 +12°C° 0.3 mm 1 mps 709 mmHg 89%
    02:00 +12°C° 0.9 mm 1 mps 709 mmHg 91%
    03:00 +11°C° 0.9 mm 1 mps 708 mmHg 92%
    04:00 +11°C° 0.9 mm 1 mps 708 mmHg 93%
    05:00 +11°C° 0.3 mm 1 mps 708 mmHg 92%
    06:00 +11°C° 0.3 mm 1 mps 708 mmHg 92%
    07:00 +10°C° 0.3 mm 2 mps 708 mmHg 91%
    08:00 +12°C° 0.2 mm 2 mps 709 mmHg 88%
    09:00 +13°C° 0.2 mm 2 mps 710 mmHg 84%
    10:00 +14°C° 0.2 mm 2 mps 711 mmHg 80%
    11:00 +15°C° 0.1 mm 2 mps 712 mmHg 77%
    12:00 +16°C° 0.1 mm 2 mps 713 mmHg 73%
    13:00 +16°C° 0.1 mm 2 mps 713 mmHg 70%
    14:00 +15°C° 0.1 mm 2 mps 714 mmHg 74%
    15:00 +15°C° 0.1 mm 2 mps 714 mmHg 79%
    16:00 +14°C° 0.1 mm 2 mps 715 mmHg 83%
    17:00 +13°C° 0.1 mm 2 mps 715 mmHg 84%
    18:00 +12°C° 0.1 mm 2 mps 716 mmHg 84%
    19:00 +9°C° 0.1 mm 2 mps 716 mmHg 85%
    20:00 +9°C° 0 mm 2 mps 717 mmHg 83%
    21:00 +9°C° 0 mm 2 mps 717 mmHg 82%
    22:00 +9°C° 0 mm 2 mps 717 mmHg 81%
    23:00 +9°C° 0.1 mm 2 mps 717 mmHg 80%

    Tomorrow, 14 November, Thursday

    Time Temperature Precipitation Wind Pressure Humidity
    00:00 +10°C° 0.1 mm 1 mps 717 mmHg 80%
    01:00 +11°C° 0.1 mm 1 mps 717 mmHg 80%
    02:00 +11°C° 0.8 mm 1 mps 717 mmHg 83%
    03:00 +10°C° 0.8 mm 1 mps 717 mmHg 86%
    04:00 +10°C° 0.8 mm 1 mps 717 mmHg 90%
    05:00 +11°C° 1.7 mm 1 mps 717 mmHg 91%
    06:00 +11°C° 1.7 mm 1 mps 717 mmHg 93%
    07:00 +11°C° 1.7 mm 1 mps 717 mmHg 95%
    08:00 +11°C° 2 mm 1 mps 718 mmHg 95%
    09:00 +11°C° 2 mm 1 mps 718 mmHg 95%
    10:00 +11°C° 2 mm 1 mps 718 mmHg 95%
    11:00 +12°C° 0.7 mm 1 mps 718 mmHg 91%
    12:00 +13°C° 0.7 mm 1 mps 718 mmHg 87%
    13:00 +14°C° 0.7 mm 2 mps 718 mmHg 83%
    14:00 +14°C° 0 mm 2 mps 718 mmHg 84%
    15:00 +14°C° 0 mm 1 mps 718 mmHg 85%
    16:00 +14°C° 0 mm 1 mps 717 mmHg 85%
    17:00 +13°C° 0 mm 2 mps 718 mmHg 87%
    18:00 +12°C° 0 mm 2 mps 718 mmHg 89%
    19:00 +10°C° 0 mm 2 mps 718 mmHg 91%
    20:00 +10°C° 0 mm 2 mps 718 mmHg 91%
    21:00 +10°C° 0 mm 3 mps 719 mmHg 90%
    22:00 +10°C° 0 mm 3 mps 719 mmHg 90%
    23:00 +11°C° 0 mm 3 mps 719 mmHg 90%

    Day after tomorrow, 15 November, Friday

    Time Temperature Precipitation Wind Pressure Humidity
    00:00 +11°C° 0 mm 3 mps 719 mmHg 90%
    01:00 +11°C° 0 mm 3 mps 719 mmHg 90%
    02:00 +10°C° 0 mm 3 mps 719 mmHg 89%
    03:00 +10°C° 0 mm 3 mps 719 mmHg 88%
    04:00 +9°C° 0 mm 3 mps 718 mmHg 87%
    05:00 +9°C° 0 mm 3 mps 719 mmHg 87%
    06:00 +9°C° 0 mm 3 mps 719 mmHg 86%
    07:00 +8°C° 0 mm 3 mps 719 mmHg 86%
    08:00 +10°C° 0 mm 3 mps 719 mmHg 84%
    09:00 +11°C° 0 mm 3 mps 719 mmHg 80%
    10:00 +13°C° 0 mm 3 mps 719 mmHg 77%
    11:00 +13°C° 0 mm 3 mps 719 mmHg 77%
    12:00 +13°C° 0 mm 3 mps 719 mmHg 77%
    13:00 +14°C° 0 mm 3 mps 719 mmHg 77%
    14:00 +14°C° 0.1 mm 3 mps 719 mmHg 79%
    15:00 +14°C° 0.1 mm 3 mps 719 mmHg 81%
    16:00 +13°C° 0.1 mm 3 mps 718 mmHg 83%
    17:00 +13°C° 0.1 mm 3 mps 719 mmHg 85%
    18:00 +13°C° 0.1 mm 3 mps 719 mmHg 87%
    19:00 +13°C° 0.1 mm 4 mps 719 mmHg 89%
    20:00 +13°C° 1 mm 3 mps 720 mmHg 90%
    21:00 +13°C° 1 mm 3 mps 720 mmHg 91%
    22:00 +13°C° 1 mm 3 mps 721 mmHg 92%
    23:00 +12°C° 0.9 mm 3 mps 721 mmHg 93%

    16 November, Saturday

    Time Temperature Precipitation Wind Pressure Humidity
    00:00 +13°C° 0.9 mm 2 mps 721 mmHg 94%
    01:00 +13°C° 0.9 mm 2 mps 722 mmHg 95%
    02:00 +13°C° 0.2 mm 2 mps 722 mmHg 95%
    03:00 +13°C° 0.2 mm 2 mps 722 mmHg 94%
    04:00 +13°C° 0.2 mm 1 mps 722 mmHg 94%
    05:00 +13°C° 0.7 mm 1 mps 722 mmHg 95%
    06:00 +13°C° 0.7 mm 1 mps 722 mmHg 96%
    07:00 +13°C° 0.7 mm 1 mps 722 mmHg 96%
    08:00 +13°C° 0.2 mm 1 mps 722 mmHg 94%
    09:00 +14°C° 0.2 mm 2 mps 722 mmHg 93%
    10:00 +14°C° 0.2 mm 2 mps 722 mmHg 91%
    11:00 +15°C° 0.1 mm 2 mps 722 mmHg 87%
    12:00 +15°C° 0.1 mm 2 mps 721 mmHg 83%
    13:00 +16°C° 0.1 mm 2 mps 721 mmHg 79%
    14:00 +15°C° 0.1 mm 2 mps 721 mmHg 82%
    15:00 +15°C° 0.1 mm 2 mps 720 mmHg 86%
    16:00 +14°C° 0.1 mm 2 mps 720 mmHg 89%
    17:00 +14°C° 0 mm 1 mps 719 mmHg 91%
    18:00 +13°C° 0 mm 1 mps 719 mmHg 93%
    19:00 +12°C° 0 mm 1 mps 719 mmHg 94%
    20:00 +12°C° 0 mm 1 mps 718 mmHg 94%
    21:00 +12°C° 0 mm 1 mps 718 mmHg 94%
    22:00 +12°C° 0 mm 1 mps 718 mmHg 94%
    23:00 +12°C° 0 mm 1 mps 717 mmHg 95%

    17 November, Sunday

    Time Temperature Precipitation Wind Pressure Humidity
    00:00 +12°C° 0 mm 2 mps 717 mmHg 95%
    01:00 +12°C° 0 mm 2 mps 716 mmHg 95%
    02:00 +10°C° 0 mm 2 mps 715 mmHg 94%
    03:00 +10°C° 0 mm 2 mps 714 mmHg 93%
    04:00 +10°C° 0 mm 2 mps 713 mmHg 92%
    05:00 +10°C° 1 mm 2 mps 713 mmHg 93%
    06:00 +10°C° 1 mm 2 mps 712 mmHg 94%
    07:00 +12°C° 1 mm 2 mps 711 mmHg 95%
    08:00 +11°C° 2.2 mm 4 mps 711 mmHg 91%
    09:00 +10°C° 2.2 mm 6 mps 711 mmHg 88%
    10:00 +11°C° 2.2 mm 7 mps 711 mmHg 85%
    11:00 +11°C° 0.5 mm 7 mps 712 mmHg 86%
    12:00 +10°C° 0.5 mm 7 mps 712 mmHg 86%
    13:00 +10°C° 0.5 mm 6 mps 712 mmHg 87%
    14:00 +10°C° 0.8 mm 6 mps 713 mmHg 87%
    15:00 +9°C° 0.8 mm 6 mps 714 mmHg 87%
    16:00 +9°C° 0.8 mm 6 mps 714 mmHg 87%
    17:00 +9°C° 0.6 mm 6 mps 715 mmHg 88%
    18:00 +8°C° 0.6 mm 5 mps 716 mmHg 88%
    19:00 +8°C° 0.6 mm 5 mps 716 mmHg 89%
    20:00 +8°C° 0.3 mm 4 mps 717 mmHg 89%
    21:00 +8°C° 0.3 mm 4 mps 718 mmHg 89%
    22:00 +8°C° 0.3 mm 4 mps 718 mmHg 89%
    23:00 +8°C° 0.3 mm 4 mps 719 mmHg 89%

    18 November, Monday

    Time Temperature Precipitation Wind Pressure Humidity
    00:00 +9°C° 0.3 mm 3 mps 719 mmHg 88%
    01:00 +9°C° 0.3 mm 3 mps 720 mmHg 88%
    02:00 +8°C° 0.1 mm 3 mps 720 mmHg 87%
    03:00 +8°C° 0.1 mm 3 mps 720 mmHg 86%
    04:00 +7°C° 0.1 mm 3 mps 720 mmHg 85%
    05:00 +7°C° 0 mm 3 mps 721 mmHg 84%
    06:00 +7°C° 0 mm 3 mps 721 mmHg 84%
    07:00 +7°C° 0 mm 3 mps 721 mmHg 84%
    08:00 +8°C° 0 mm 2 mps 722 mmHg 82%
    09:00 +9°C° 0 mm 2 mps 722 mmHg 79%
    10:00 +12°C° 0 mm 2 mps 723 mmHg 77%
    11:00 +12°C° 0.3 mm 2 mps 723 mmHg 79%
    12:00 +13°C° 0.3 mm 1 mps 722 mmHg 80%
    13:00 +13°C° 0.3 mm 1 mps 722 mmHg 82%
    14:00 +13°C° 0.4 mm 1 mps 722 mmHg 84%
    15:00 +12°C° 0.4 mm 2 mps 722 mmHg 87%
    16:00 +12°C° 0.4 mm 2 mps 722 mmHg 90%
    17:00 +12°C° 0.1 mm 2 mps 722 mmHg 90%
    18:00 +12°C° 0.1 mm 2 mps 722 mmHg 90%
    19:00 +10°C° 0.1 mm 2 mps 722 mmHg 90%
    20:00 +10°C° 0 mm 2 mps 722 mmHg 90%
    21:00 +10°C° 0 mm 2 mps 722 mmHg 89%
    22:00 +10°C° 0 mm 2 mps 722 mmHg 88%
    23:00 +10°C° 0.1 mm 2 mps 722 mmHg 87%
    Show more